STARLINK-2389, 47808

Orbit data source: Space-Track

STARLINK-2389, 47808 is a payload satellite owned by SpaceX/Seattle (US) in LEO that was launched on Thu, 11 Mar 2021 UTC via an FALCON 9 launch vehicle from the Air Force Eastern Test Range (AFETR). Payload-class satellites include a variety of spacecraft equipped with specific instruments for various scientific and technological missions. These include communications satellites like Starlink; space stations such as the ISS; scientific satellites like the Hubble; Earth observation satellites from companies like Planet Labs, Umbra, and HawkEye 360; GPS; miniature CubeSats for education and research; and military/defense satellites.

Loading next visibility...
Identifier
47808, 2021-018X
Orbit
LEO
Country
Flag of USUS
Related business
Manufacturer
SpaceX/Seattle
Mission
Operational Commercial Communications
Bus & Motor
STARLINK, Unknown motor
Mass
260 kg wet, ~248 kg dry
Launch date (UTC)
2021-03-11 (5 years ago)
Launch vehicle
FALCON 9
Launch site
Air Force Eastern Test Range (AFETR)
Object type
Payload
Rocket body
Debris
Shape & HBR
Box + 1 Pan, 10.1 m
Radar Cross Section
13.562 m², Large (>1 m²)

Expand to show TLE details & history
Last TLE update: 3 days ago

TLE from 3 days ago
0 STARLINK-2389
1 47808U 21018X   26170.58563675  .00001302  00000-0  53704-4 0  9999
2 47808  53.1576 128.6042 0001953  97.9340 262.1883 15.31707732292390
Epoch: 2026-06-19T14:03Z
TLE epoch observation values (Epoch: 2026-06-19T14:03:19.015Z)
Latitude
-0.00001°
Longitude
9.96246°
Altitude
471.799 km
Speed
7.631 km/s
True Right ascension
08h 34m 25s
True Declination
0° 00' 00"
Sunlit
Object was in daylight at epoch
Visualization orbit readout
Latitude
Unknown
Longitude
Unknown
Altitude
Unknown
Speed
Unknown
Apparent Right ascension
Unknown
Apparent Declination
Unknown
Sunlit
N/A
Visualization observer readout
Local Sidereal Time
02:14:11
Azimuth
Unknown
Elevation
Unknown
Doppler factor
Unknown
Orbital elements
Apogee altitude
472.312 km
Perigee altitude
469.636 km
Semi-major axis
6,849.111 km
Eccentricity
0.0002
Inclination
53.1576°
RAAN
128.6042°
Arg. of periapsis
97.934°
True anomaly
262.16613°
Mean anomaly
262.1883°
Eccentric anomaly
262.17721°
Mean motion
3.82906 °/min
Orbital period
94.02 mins
BSTAR
0.000053704
Loading maneuver chart data...
Computing Atmospheric mass density...

Documentation

Showing up to 5 results
|